INTELSAT 40E (IS-40E)

Last updated on Thu Nov 21 2024 00:02:45 GMT+0000 (Coordinated Universal Time)

1 56174U 23052A 24324.91988113 -.00000172 00000+0 00000+0 0 9999 2 56174 0.0122 290.8662 0002339 302.2382 66.4793 1.00269723 6067
UTC large
Height (km)
Speed (km/s)
/
Latitude / Longitude
Inclination (degrees)
Orbital Period (minutes)
Azimuth
Elevation
Range (km)
Doppler Factor

Next 0 passes for location: London (51.5072 / 0.1276)

Sorry there are no passes over London.